STARLINK-4134, 53254

Orbit data source: Space-Track

STARLINK-4134, 53254 is a payload satellite owned by SpaceX/Seattle (US) in LEO that was launched on Sun, 24 Jul 2022 UTC via an FALCON 9 launch vehicle from the Air Force Eastern Test Range (AFETR). Payload-class satellites include a variety of spacecraft equipped with specific instruments for various scientific and technological missions. These include communications satellites like Starlink; space stations such as the ISS; scientific satellites like the Hubble; Earth observation satellites from companies like Planet Labs, Umbra, and HawkEye 360; GPS; miniature CubeSats for education and research; and military/defense satellites.

Loading next visibility...
Identifier
53254, 2022-086N
Orbit
LEO
Country
Flag of USUS
Related business
Manufacturer
SpaceX/Seattle
Mission
Operational Commercial Communications
Bus & Motor
STARLINK, Unknown motor
Mass
297 kg wet, ~275 kg dry
Launch date (UTC)
2022-07-24 (4 years ago)
Launch vehicle
FALCON 9
Launch site
Air Force Eastern Test Range (AFETR)
Object type
Payload
Rocket body
Debris
Shape & HBR
Box + 1 Pan, 10.1 m
Radar Cross Section
13.562 m², Large (>1 m²)

Expand to show TLE details & history
Last TLE update: 2 days ago

TLE from 2 days ago
0 STARLINK-4134
1 53254U 22086N   26171.18029626 -.00000007  00000-0  17673-4 0  9994
2 53254  53.1611  93.9212 0001418  90.2819 269.8335 15.08834953216558
Epoch: 2026-06-20T04:19Z
TLE epoch observation values (Epoch: 2026-06-20T04:19:37.596Z)
Latitude
-0.00003°
Longitude
120.6159°
Altitude
540.653 km
Speed
7.593 km/s
True Right ascension
06h 15m 41s
True Declination
0° 00' 00"
Sunlit
Object was in daylight at epoch
Visualization orbit readout
Latitude
Unknown
Longitude
Unknown
Altitude
Unknown
Speed
Unknown
Apparent Right ascension
Unknown
Apparent Declination
Unknown
Sunlit
N/A
Visualization observer readout
Local Sidereal Time
21:29:58
Azimuth
Unknown
Elevation
Unknown
Doppler factor
Unknown
Orbital elements
Apogee altitude
540.994 km
Perigee altitude
539.032 km
Semi-major axis
6,918.15 km
Eccentricity
0.00014
Inclination
53.1611°
RAAN
93.9212°
Arg. of periapsis
90.2819°
True anomaly
269.81725°
Mean anomaly
269.8335°
Eccentric anomaly
269.82538°
Mean motion
3.77188 °/min
Orbital period
95.44 mins
BSTAR
0.000017673
Loading maneuver chart data...
Computing Atmospheric mass density...
Loading historical data...
Loading historical data...
Loading historical data...
Loading historical data...
Loading historical data...
Loading historical data...
Loading historical data...

Documentation

Showing up to 5 results
|